Location: Ar Ranvel
(48.3000°N, 4.8833°W)
Time: 09:25:41
(UTC+00:00)

Cosmos 1110 Rocket - Pass Details

Date: 16 June 2021
Orbit: 752 x 782 km, 74.0° (Epoch: 01 August)

Event Time Altitude Azimuth Distance (km) Brightness Sun altitude
Exits shadow 22:15:01 - 203° (SSW) 2,866 6.6 -13.0°
Reaches altitude 10° 22:16:32 10° 204° (SSW) 2,272 6.1 -13.1°
Maximum altitude 22:21:42 84° 293° (WNW) 767 4.0 -13.5°
Drops below altitude 10° 22:26:56 10° 22° (NNE) 2,303 7.1 -13.9°
Sets 22:29:19 0° 23° (NNE) 3,238 7.9 -14.1°
